sat.trackr.live / text

‹ back to catalog

STARLINK-31949

NORAD 59891 · 2024-100G

PAYLOAD ACTIVE UNKNOWN

§ Identity

Operator
Country
US
Launch date
2024-05-28
Launch site
AFETR
Launch vehicle
Mass (kg)
RCS (m²)

Purposes: comms

External: N2YO · Heavens-Above · Gunter

§ Orbital elements

Epoch: 2026-05-25T00:51:38.246112Z

Period
94.27 min
Inclination
42.9988°
Eccentricity
0.0000342
Mean motion
15.27577219 rev/d
Perigee alt
482.8 km
Apogee alt
483.3 km
Semi-major
6,861.2 km
B*
6.6366e-5
RAAN
54.1737°
Arg perigee
179.3876°
Mean anomaly
180.6976°
Rev number
11,273

§ Raw data

STARLINK-319491 59891U 24100G   26145.03585933  .00001565  00000+0  66366-4 0  99902 59891  42.9988  54.1737 0000342 179.3876 180.6976 15.27577219112738

JSON: /api/v1/satellites/59891 · /tle

For live sub-satellite position, see the globe view (requires WebGL).

§ Visibility from observer

Set your observer location to see the next 7 days of passes ≥ 10°. The values pass through the URL so the page stays shareable.

No JS? Fill the form by hand. The geolocation button needs JavaScript.